Tracking 29040 objects as of 15-Jun-2024
HD Live streaming from Space Station
objects crossing your sky now

CZ-2C DEB

Track CZ-2C DEB now!
10-day predictions


NORAD ID: 40266
Int'l Code: 2014-059F
Perigee: 684.7 km
Apogee: 933.5 km
Inclination: 98.4 °
Period: 100.9 minutes
Semi major axis: 7180 km
RCS: Unknown
Launch date: September 28, 2014
Source: People's Republic of China (PRC)
Launch site: Jiuquan Satellite Launch Center, China (JSC)

Note: This is SATELLITE DEBRIS
Your satellite tracking list
Your tracking list is empty




NASA's NSSDC Master Catalog

Two Line Element Set (TLE):
1 40266U 14059F   24166.77268396  .00002007  00000-0  72037-3 0  9995
2 40266  98.3588  91.9804 0173238 231.8194 126.7275 14.26940125503927
Source of the keplerian elements: AFSPC